Regional Weather Roundup
Issued by NWS State College, PA

Home | Current Version | Previous Version | Text Only | Print | Product List | Glossary On
Versions: 1 2 3 4 5 6 7 8 9 10 11 12 13 14 15 16 17 18 19 20 21 22 23 24 25 26 27 28 29 30 31 32 33 34 35 36 37 38 39 40 41 42 43 44 45 46 47 48 49 50
000
ASUS41 KCTP 050910
RWRCTP

REGIONAL WEATHER ROUNDUP
NATIONAL WEATHER SERVICE STATE COLLEGE PA
500 AM EDT SUN JUL 05 2015

Note: "fair" indicates few or no clouds below 12,000 feet with no
significant weather and/or obstructions to visibility.

* = STATION THAT DOES NOT REPORT PRECIPITATION /E.G. RAIN...SNOW...ETC/
    THUNDER OR FOG.

PAZ002>004-007>009-013>016-020>023-029>032-051000-
WESTERN PENNSYLVANIA

CITY           SKY/WX    TMP DP  RH WIND       PRES   REMARKS
ERIE           CLEAR     58  52  80 S3        30.09S
MEADVILLE      CLEAR     55  51  86 CALM      30.11S FOG
FRANKLIN*      CLEAR     52  46  82 CALM      30.13S
NEW CASTLE     PTSUNNY   54  54 100 CALM      30.12R
BEAVER COUNTY  NOT AVBL
BUTLER*        PTCLDY    54  52  94 CALM      30.12S
PITTSBURGH INT CLOUDY    60  55  83 CALM      30.09S
PITTSBURGH     MOCLDY    60  53  77 CALM      30.09S
INDIANA*       CLOUDY    55  55 100 CALM      30.15R
LATROBE        NOT AVBL
WASHINGTON CO* NOT AVBL
$$

PAZ004>006-010>012-017>019-024>028-033>037-041-042-045-046-049>053-051000-
CENTRAL PENNSYLVANIA

CITY           SKY/WX    TMP DP  RH WIND       PRES   REMARKS
BRADFORD       CLEAR     48  46  93 CALM      30.13R
DUBOIS         PTCLDY    55  49  80 CALM      30.11S
CLEARFIELD     CLOUDY    56  55  97 N3        30.13R FOG
JOHNSTOWN      PTCLDY    58  55  90 SW6       30.13S
ALTOONA        FOG       61  60  97 CALM      30.12R VSB 1/4
STATE COLLEGE  CLOUDY    63  63  99 CALM      30.11S FOG
WILLIAMSPORT   CLOUDY    63  60  90 CALM      30.08S FOG
SELINSGROVE    FOG       62  61  96 CALM      30.10R VSB 1/4
FT INDIANTOWN  FOG       58  58  99 CALM      30.09S VSB 1/4
CAPITAL CITY   FOG       62  61  96 CALM      30.09R VSB 1/4
HARRISBURG     FOG       64  62  93 CALM      30.08S VSB 1/4
YORK           FOG       64  64 100 CALM      30.09S VSB 1/4
$$

PAZ038>040-043-044-047-048-054-055-060>062-067>071-051000-
EASTERN PENNSYLVANIA

CITY           SKY/WX    TMP DP  RH WIND       PRES   REMARKS
SCRANTON       CLOUDY    63  61  93 SW5       30.09R FOG
MOUNT POCONO   CLOUDY    59  57  93 W3        30.11R FOG
ALLENTOWN      PTCLDY    61  59  94 CALM      30.08S FOG
QUAKERTOWN*    CLOUDY    64  63  94 CALM      30.10R
READING        PTCLDY    64  62  93 CALM      30.08R
LANCASTER      PTCLDY    63  62  97 NW3       30.08S FOG
COATESVILLE    PTSUNNY   64  64 100 CALM      30.09S FOG
POTTSTOWN      FOG       64  64 100 CALM      30.10R VSB 1
BLUE BELL      CLOUDY    63  63 100 CALM      30.08R
DOYLESTOWN     CLOUDY    66  61  84 NW3       30.08R
WILLOW GROVE   NOT AVBL
NORTH PHILA    CLEAR     66  56  70 CALM      30.09R
PHILADELPHIA   PTCLDY    68  58  70 NW5       30.07R
$$



USA.gov is the U.S. government's official web portal to all federal, state and local government web resources and services.